Regional Weather Roundup
Issued by NWS Jackson, KY

Home | Current Version | Previous Version | Graphics & Text | Print | Product List | Glossary On
Versions: 1 2 3 4 5 6 7 8 9 10 11 12 13 14 15 16 17 18 19 20 21 22 23 24 25 26 27 28 29 30 31 32 33 34 35 36 37 38 39 40 41 42 43 44 45 46 47 48 49 50
000
ASUS43 KJKL 071510
RWRJKL

EAST KENTUCKY HOURLY WEATHER ROUNDUP
NATIONAL WEATHER SERVICE JACKSON KY
1000 AM EST SUN FEB 07 2016

NOTE: "FAIR" INDICATES FEW OR NO CLOUDS BELOW 12,000 FEET WITH
NO SIGNIFICANT WEATHER AND/OR OBSTRUCTIONS TO VISIBILITY.

* THESE REPORTS ARE NOT UNDER NWS QUALITY CONTROL AND MAY NOT
  REPORT WEATHER SUCH AS PRECIPITATION AND FOG.

KYZ079-080-083-085-087-088-110-112-115-119-120-071600
...EASTERN KENTUCKY...

CITY           SKY/WX    TMP DP  RH WIND       PRES   REMARKS
JACKSON        SUNNY     36  23  59 SW5       30.15F WCI  32
LONDON         SUNNY     34  25  69 SW3       30.17F
SOMERSET*      SUNNY     32  27  80 CALM      30.21F
MONTICELLO*    SUNNY     38  27  64 VRB7      30.21F WCI  33
WILLIAMSBURG*  SUNNY     34  28  80 CALM      30.19S
MIDDLESBORO*   SUNNY     32  27  81 CALM      30.20F
HARLAN APT*      N/A     34  28  80 CALM      30.17F
HAZARD APT*    SUNNY    N/A N/A N/A S3        30.16F
BLACK MTN*       N/A     32  23  69 VRB7        N/A  WCI  26
BIG SANDY*     SUNNY     37  26  63 SW3       30.15F
MOREHEAD APT*  SUNNY     37  27  65 S6        30.17S WCI  33
$$

KYZ035-036-041-042-044-050-067-078-099-071600
...CENTRAL KENTUCKY...

CITY           SKY/WX    TMP DP  RH WIND       PRES   REMARKS
MT STERLING*   SUNNY     37  27  65 SW7       30.16F WCI  32
DANVILLE*      SUNNY     36  27  69 SW6       30.17F WCI  31
RICHMOND*      SUNNY     41  25  52 S8        30.16F
LEXINGTON      SUNNY     40  25  55 SW9       30.14F WCI  34
FRANKFORT      SUNNY     41  25  53 SW9       30.12F
$$

KYZ091>093-OHZ055-061-077-WVZ005-015-034-035-042-071600
...SOUTHERN OHIO/WEST VIRGINIA...

CITY           SKY/WX    TMP DP  RH WIND       PRES   REMARKS
COVINGTON      PTSUNNY   41  24  51 S12       30.08F
COLUMBUS       PTSUNNY   37  24  59 S9        30.08F WCI  30
DAYTON         CLOUDY    39  24  55 SW14      30.05S WCI  31
WILMINGTON     SUNNY     40  27  59 S12       30.07F WCI  33
HUNTINGTON       N/A     38  26  62 S6        30.14F WCI  33
CHARLESTON       N/A     34  27  75 CALM      30.14F
PINEVILLE*       N/A     36  24  61 MISG      30.19S
BECKLEY          N/A     36  19  50 CALM      30.11S
$$

VAZ002-007-008-TNZ017-027-036-066-071-071600
...SOUTHWEST VIRGINIA/EAST TENNESSEE...

CITY           SKY/WX    TMP DP  RH WIND       PRES   REMARKS
BRISTOL        MOSUNNY   32  24  72 CALM      30.18R
KNOXVILLE      SUNNY     34  26  72 S3        30.20S
OAK RIDGE      SUNNY     39  27  62 CALM      30.20F
CROSSVILLE     SUNNY     42  22  44 W5        30.18S
NASHVILLE      PTSUNNY   41  27  57 S3        30.22F
$$

...KEY TO REMARKS...
VSB - VISIBILITY IN MILES
WCI - WIND CHILL INDEX
HX  - HEAT INDEX

$$




USA.gov is the U.S. government's official web portal to all federal, state and local government web resources and services.